Change the Weather History Date:

Friday, October 28, 2011

  Actual Average Record
Temperature  
Mean Temperature 78 °F -  
Max Temperature 86 °F 84 °F 90 °F (1950)
Min Temperature 73 °F 68 °F 50 °F (1957)
Cooling Degree Days 14    
Growing Degree Days 28 (Base 50)    
Moisture  
Dew Point 73 °F    
Average Humidity 82    
Maximum Humidity 94    
Minimum Humidity 69    
Precipitation  
Precipitation 1.28 in - - ()
Sea Level Pressure  
Sea Level Pressure 29.90 in    
Wind  
Wind Speed 7 mph (ESE)    
Max Wind Speed 15 mph    
Max Gust Speed 22 mph    
Visibility 8 miles    
Events Rain , Thunderstorm    
Averages and records for this station are not official NWS values.
T = Trace of Precipitation, MM = Missing Value Source: NWS Daily Summary

Daily Weather History Graph

Daily Weather History Graph

Search for Another Location

Airport or City:

Trip Planner

Search our weather history database for the weather conditions in past years. The results will help you decide how hot, cold, wet, or windy it might be!

Date:

Astronomy

Oct. 28, 2011 Rise Set
Actual Time 7:26 AM EDT 6:41 PM EDT
Civil Twilight 7:03 AM EDT 7:05 PM EDT
Nautical Twilight 6:36 AM EDT 7:32 PM EDT
Astronomical Twilight 6:09 AM EDT 7:59 PM EDT
Moon 9:24 AM EDT (10/28) 8:20 PM EDT (10/28)
Length of Visible Light 12h 02m
Length of Day
11h 14m
Waxing Crescent, 5% of the Moon is Illuminated
Oct 28
Waxing Crescent
Nov 2
First Quarter
Nov 10
Full
Nov 18
Last Quarter
Nov 25
New

Hourly Weather History & Observations

Time (EDT) Temp. Heat Index Dew Point Humidity Pressure Visibility Wind Dir Wind Speed Gust Speed Precip Events Conditions
12:53 AM 81.0 °F 85.8 °F 73.0 °F 77% 29.94 in 10.0 mi ESE 8.1 mph - N/A   Mostly Cloudy
1:53 AM 80.1 °F 84.5 °F 73.9 °F 81% 29.92 in 10.0 mi ESE 5.8 mph - N/A   Clear
2:53 AM 79.0 °F - 73.0 °F 82% 29.91 in 10.0 mi ESE 4.6 mph - N/A   Clear
3:53 AM 79.0 °F - 73.0 °F 82% 29.90 in 10.0 mi East 4.6 mph - N/A   Clear
4:53 AM 80.1 °F 84.5 °F 73.9 °F 81% 29.91 in 10.0 mi Calm Calm - N/A   Clear
5:53 AM 78.1 °F - 73.9 °F 87% 29.91 in 10.0 mi East 5.8 mph - N/A   Partly Cloudy
6:53 AM 80.1 °F 84.5 °F 73.9 °F 81% 29.91 in 10.0 mi ESE 4.6 mph - N/A   Scattered Clouds
8:13 AM 80.6 °F 85.4 °F 73.4 °F 79% 29.92 in 10.0 mi ESE 5.8 mph - N/A   Scattered Clouds
8:53 AM 82.0 °F 89.4 °F 75.9 °F 82% 29.94 in 10.0 mi ESE 8.1 mph - 0.02 in Rain Light Rain
9:53 AM 81.0 °F 86.7 °F 75.0 °F 82% 29.95 in 8.0 mi SSE 8.1 mph - 0.00 in Rain Light Rain
10:53 AM 84.0 °F 91.9 °F 75.0 °F 74% 29.94 in 10.0 mi ESE 11.5 mph - 0.00 in   Scattered Clouds
11:53 AM 82.9 °F 89.4 °F 73.9 °F 74% 29.93 in 10.0 mi SE 9.2 mph - N/A   Scattered Clouds
12:53 PM 84.2 °F 90.9 °F 73.4 °F 70% 29.91 in 10.0 mi ESE 10.4 mph - N/A   Mostly Cloudy
1:53 PM 84.0 °F 91.2 °F 73.9 °F 72% 29.89 in 10.0 mi ESE 13.8 mph - 0.00 in   Mostly Cloudy
2:53 PM 84.9 °F 92.1 °F 73.9 °F 69% 29.86 in 10.0 mi SE 10.4 mph - N/A   Scattered Clouds
3:53 PM 84.9 °F 92.1 °F 73.9 °F 69% 29.85 in 10.0 mi ESE 11.5 mph - N/A   Scattered Clouds
4:53 PM 82.9 °F 90.2 °F 75.0 °F 77% 29.83 in 10.0 mi ESE 13.8 mph - N/A   Scattered Clouds
5:53 PM 82.0 °F 88.6 °F 75.0 °F 79% 29.86 in 10.0 mi ESE 10.4 mph - N/A   Scattered Clouds
6:53 PM 82.0 °F 88.6 °F 75.0 °F 79% 29.86 in 10.0 mi East 6.9 mph - N/A   Mostly Cloudy
7:18 PM 80.6 °F 86.2 °F 75.2 °F 84% 29.87 in 2.0 mi SSE 15.0 mph 21.9 mph N/A Rain , Thunderstorm Heavy Thunderstorms and Rain
7:37 PM 77.0 °F - 73.4 °F 89% 29.85 in 10.0 mi North 5.8 mph - N/A Rain , Thunderstorm Light Thunderstorms and Rain
10:14 PM 75.2 °F - 71.6 °F 89% 29.87 in 2.0 mi North 6.9 mph - 0.15 in Rain , Thunderstorm Thunderstorms and Rain
10:24 PM 75.2 °F - 71.6 °F 89% 29.88 in 1.8 mi NNW 6.9 mph - 0.37 in Rain , Thunderstorm Thunderstorms and Rain
10:53 PM 75.0 °F - 72.0 °F 90% 29.88 in 6.0 mi NNW 8.1 mph - 0.43 in Rain , Thunderstorm Thunderstorms and Rain
11:31 PM 73.4 °F - 71.6 °F 94% 29.87 in 1.5 mi NNW 3.5 mph - 0.22 in Rain , Thunderstorm Thunderstorms and Rain
11:45 PM 73.4 °F - 71.6 °F 94% 29.90 in 3.0 mi Variable 4.6 mph - 0.46 in Rain , Thunderstorm Thunderstorms and Rain
11:47 PM 73.4 °F - 71.6 °F 94% 29.91 in 1.5 mi SSW 4.6 mph - 0.54 in Rain , Thunderstorm Thunderstorms and Rain
11:53 PM 73.9 °F - 72.0 °F 93% 29.94 in 1.5 mi SSE 8.1 mph - 0.83 in Rain , Thunderstorm Thunderstorms and Rain
11:57 PM 75.2 °F - 71.6 °F 89% 29.94 in 0.8 mi South 12.7 mph 18.4 mph 0.21 in Rain , Thunderstorm Thunderstorms and Rain